iso_date,epoch_date,Year,Hour,Min,DOY,POS_DOY,Lat,Lon,BP,Ts,Ta,has_bp,has_ts,has_ta,BuoyID,Buoy_Type,Buoy_Owner,Logistics,Hemisphere
2017-08-31T18:00:00Z,1504202400,2017,18,0,243.75,243.75,76.53559,-68.7269,990.6,14.44,14.6,yes,yes,yes,145803,AXIB,USIABP,USIABP_USCG_C-130,North
2017-08-31T19:00:28Z,1504206029,2017,19,0,243.792,243.792,76.53558,-68.7267,990.5,9.53,8.0,yes,yes,yes,145803,AXIB,USIABP,USIABP_USCG_C-130,North
2017-08-31T19:59:31Z,1504209571,2017,20,0,243.833,243.833,76.53564,-68.7269,990.7,7.28,5.37,yes,yes,yes,145803,AXIB,USIABP,USIABP_USCG_C-130,North
2017-08-31T21:00:00Z,1504213200,2017,21,0,243.875,243.875,76.53563,-68.72684,990.7,6.01,4.34,yes,yes,yes,145803,AXIB,USIABP,USIABP_USCG_C-130,North
2017-08-31T22:00:28Z,1504216829,2017,22,0,243.917,243.917,76.53556,-68.72675,990.8,5.5,3.92,yes,yes,yes,145803,AXIB,USIABP,USIABP_USCG_C-130,North
2017-08-31T22:59:31Z,1504220371,2017,23,0,243.958,243.958,76.53559,-68.72678,991.0,4.87,3.44,yes,yes,yes,145803,AXIB,USIABP,USIABP_USCG_C-130,North
2017-09-01T00:00:00Z,1504224000,2017,0,0,244.0,244.0,76.53569,-68.72668,991.0,3.88,2.46,yes,yes,yes,145803,AXIB,USIABP,USIABP_USCG_C-130,North
2017-09-01T01:00:28Z,1504227629,2017,1,0,244.042,244.042,76.53558,-68.72696,991.1,2.96,1.69,yes,yes,yes,145803,AXIB,USIABP,USIABP_USCG_C-130,North
2017-09-01T01:59:31Z,1504231171,2017,2,0,244.083,244.083,76.53555,-68.72678,990.9,2.28,1.12,yes,yes,yes,145803,AXIB,USIABP,USIABP_USCG_C-130,North
2017-09-01T03:00:00Z,1504234800,2017,3,0,244.125,244.125,76.53554,-68.72687,990.8,2.03,0.77,yes,yes,yes,145803,AXIB,USIABP,USIABP_USCG_C-130,North
2017-09-01T04:00:28Z,1504238429,2017,4,0,244.167,244.167,76.53562,-68.72687,990.7,2.17,1.08,yes,yes,yes,145803,AXIB,USIABP,USIABP_USCG_C-130,North
2017-09-01T04:59:31Z,1504241971,2017,5,0,244.208,244.208,76.53562,-68.72696,990.8,2.08,1.13,yes,yes,yes,145803,AXIB,USIABP,USIABP_USCG_C-130,North
2017-09-01T06:00:00Z,1504245600,2017,6,0,244.25,244.25,76.53557,-68.72696,990.8,1.89,0.98,yes,yes,yes,145803,AXIB,USIABP,USIABP_USCG_C-130,North
2021-08-24T03:00:00Z,1629774000,2021,3,0,236.125,236.125,57.74417,-152.49693,1004.2,15.88,-22.96,yes,yes,yes,145803,AXIB,USIABP,USIABP_USCG_C-130,North
2021-08-24T04:00:02Z,1629777603,2021,4,0,236.1667,236.1667,57.73604,-152.50632,1004.2,15.09,-22.96,yes,yes,yes,145803,AXIB,USIABP,USIABP_USCG_C-130,North
2021-08-24T06:00:00Z,1629784800,2021,6,0,236.25,236.25,57.73621,-152.50598,1004.3,14.89,-22.99,yes,yes,yes,145803,AXIB,USIABP,USIABP_USCG_C-130,North
2021-08-24T10:00:02Z,1629799203,2021,10,0,236.4167,236.4167,57.73637,-152.5061,1004.9,14.22,-23.06,yes,yes,yes,145803,AXIB,USIABP,USIABP_USCG_C-130,North
2021-08-24T10:59:57Z,1629802797,2021,11,0,236.4583,236.4597,57.73683,-152.50502,1004.7,13.84,-23.06,yes,yes,yes,145803,AXIB,USIABP,USIABP_USCG_C-130,North
2021-08-24T12:00:00Z,1629806400,2021,12,0,236.5,236.5,57.73612,-152.50638,1004.6,13.56,-23.07,yes,yes,yes,145803,AXIB,USIABP,USIABP_USCG_C-130,North
2021-08-24T13:00:02Z,1629810003,2021,13,0,236.5417,236.5417,57.73617,-152.50658,1004.5,13.34,-23.08,yes,yes,yes,145803,AXIB,USIABP,USIABP_USCG_C-130,North
2021-08-24T13:59:57Z,1629813597,2021,14,0,236.5833,236.5833,57.7361,-152.50613,1004.2,13.17,-23.08,yes,yes,yes,145803,AXIB,USIABP,USIABP_USCG_C-130,North
2021-08-24T15:00:00Z,1629817200,2021,15,0,236.625,236.625,57.73725,-152.50603,1004.0,12.73,-23.1,yes,yes,yes,145803,AXIB,USIABP,USIABP_USCG_C-130,North
2021-08-24T16:00:02Z,1629820803,2021,16,0,236.6667,236.6694,57.73721,-152.50153,1004.0,13.05,-23.11,yes,yes,yes,145803,AXIB,USIABP,USIABP_USCG_C-130,North
2021-08-24T16:59:57Z,1629824397,2021,17,0,236.7083,236.7083,59.93142,-152.01524,858.0,15.54,-23.11,yes,yes,yes,145803,AXIB,USIABP,USIABP_USCG_C-130,North
2021-08-24T18:00:00Z,1629828000,2021,18,0,236.75,236.7507,61.24869,-149.82512,998.2,15.98,-23.1,yes,yes,yes,145803,AXIB,USIABP,USIABP_USCG_C-130,North
2021-08-24T19:00:02Z,1629831603,2021,19,0,236.7917,236.7917,61.24862,-149.82529,998.1,15.59,-23.05,yes,yes,yes,145803,AXIB,USIABP,USIABP_USCG_C-130,North
2021-08-24T19:59:57Z,1629835197,2021,20,0,236.8333,236.8333,61.24871,-149.8249,998.0,15.47,-23.04,yes,yes,yes,145803,AXIB,USIABP,USIABP_USCG_C-130,North
2021-08-24T21:00:00Z,1629838800,2021,21,0,236.875,236.875,61.24866,-149.82497,997.7,15.54,-23.02,yes,yes,yes,145803,AXIB,USIABP,USIABP_USCG_C-130,North
2021-08-24T22:00:02Z,1629842403,2021,22,0,236.9167,236.9181,61.24885,-149.82478,997.5,15.88,-23.03,yes,yes,yes,145803,AXIB,USIABP,USIABP_USCG_C-130,North
2021-08-24T22:59:57Z,1629845997,2021,23,0,236.9583,236.9611,61.24881,-149.82614,997.2,16.75,-23.01,yes,yes,yes,145803,AXIB,USIABP,USIABP_USCG_C-130,North
2021-08-25T01:00:02Z,1629853203,2021,1,0,237.0417,237.0431,61.24944,-149.82504,996.7,18.87,-22.97,yes,yes,yes,145803,AXIB,USIABP,USIABP_USCG_C-130,North
2021-08-25T01:59:57Z,1629856797,2021,2,0,237.0833,237.0861,61.24945,-149.82503,887.8,18.7,-22.97,yes,yes,yes,145803,AXIB,USIABP,USIABP_USCG_C-130,North
2021-08-25T03:00:00Z,1629860400,2021,3,0,237.125,237.1257,57.73635,-152.50383,1003.7,18.08,-22.93,yes,yes,yes,145803,AXIB,USIABP,USIABP_USCG_C-130,North
2021-08-25T04:00:02Z,1629864003,2021,4,0,237.1667,237.1667,57.73611,-152.50294,1004.0,17.74,-22.92,yes,yes,yes,145803,AXIB,USIABP,USIABP_USCG_C-130,North
2021-08-25T04:59:57Z,1629867597,2021,5,0,237.2083,237.2097,57.73709,-152.5033,1004.6,17.53,-22.92,yes,yes,yes,145803,AXIB,USIABP,USIABP_USCG_C-130,North
2021-08-25T06:00:00Z,1629871200,2021,6,0,237.25,237.25,57.73619,-152.50385,1005.0,17.09,-22.92,yes,yes,yes,145803,AXIB,USIABP,USIABP_USCG_C-130,North
2021-08-25T07:00:02Z,1629874803,2021,7,0,237.2917,237.2917,57.73633,-152.50327,1005.3,16.45,-22.92,yes,yes,yes,145803,AXIB,USIABP,USIABP_USCG_C-130,North
2021-08-25T09:00:00Z,1629882000,2021,9,0,237.375,237.375,57.73656,-152.50352,1005.9,14.95,-22.95,yes,yes,yes,145803,AXIB,USIABP,USIABP_USCG_C-130,North
2021-08-25T10:59:57Z,1629889197,2021,11,0,237.4583,237.459,57.73618,-152.50233,1006.4,13.55,-23.0,yes,yes,yes,145803,AXIB,USIABP,USIABP_USCG_C-130,North
2021-08-25T12:00:00Z,1629892800,2021,12,0,237.5,237.5007,57.73657,-152.50264,1006.4,13.01,-23.05,yes,yes,yes,145803,AXIB,USIABP,USIABP_USCG_C-130,North
2021-08-25T13:00:02Z,1629896403,2021,13,0,237.5417,237.5417,57.73662,-152.50327,1006.7,12.4,-23.07,yes,yes,yes,145803,AXIB,USIABP,USIABP_USCG_C-130,North
2021-08-25T13:59:57Z,1629899997,2021,14,0,237.5833,237.5861,57.73635,-152.5032,1006.7,11.89,-23.08,yes,yes,yes,145803,AXIB,USIABP,USIABP_USCG_C-130,North
2021-08-25T15:00:00Z,1629903600,2021,15,0,237.625,237.625,57.73586,-152.50568,1006.6,11.5,-23.1,yes,yes,yes,145803,AXIB,USIABP,USIABP_USCG_C-130,North
2021-08-25T16:00:02Z,1629907203,2021,16,0,237.6667,237.6694,57.73669,-152.49785,1006.9,11.34,-23.13,yes,yes,yes,145803,AXIB,USIABP,USIABP_USCG_C-130,North
2021-08-25T16:59:57Z,1629910797,2021,17,0,237.7083,237.7111,57.75082,-152.5062,1006.6,13.74,-23.14,yes,yes,yes,145803,AXIB,USIABP,USIABP_USCG_C-130,North
2021-08-25T18:00:00Z,1629914400,2021,18,0,237.75,237.75,60.9889,-151.84785,854.8,14.58,-23.14,yes,yes,yes,145803,AXIB,USIABP,USIABP_USCG_C-130,North
2021-08-25T19:59:57Z,1629921597,2021,20,0,237.8333,237.8333,70.92428,-149.98985,978.7,9.92,-23.11,yes,yes,yes,145803,AXIB,USIABP,USIABP_USCG_C-130,North
2021-08-25T21:00:00Z,1629925200,2021,21,0,237.875,237.875,71.99239,-150.18378,983.7,9.79,-23.12,yes,yes,yes,145803,AXIB,USIABP,USIABP_USCG_C-130,North
2021-08-25T22:00:02Z,1629928803,2021,22,0,237.9167,237.9167,73.98038,-150.00777,1004.1,5.11,1.31,yes,yes,yes,145803,AXIB,USIABP,USIABP_USCG_C-130,North
2021-08-25T22:59:57Z,1629932397,2021,23,0,237.9583,237.9583,73.98719,-150.00372,1004.0,-0.74,9.61,yes,yes,yes,145803,AXIB,USIABP,USIABP_USCG_C-130,North
2021-08-26T00:00:00Z,1629936000,2021,0,0,238.0,238.0,73.99336,-150.00026,1003.6,-0.95,6.33,yes,yes,yes,145803,AXIB,USIABP,USIABP_USCG_C-130,North
2021-08-26T01:00:02Z,1629939603,2021,1,0,238.0417,238.0417,73.99927,-149.99664,1003.3,-0.98,15.61,yes,yes,yes,145803,AXIB,USIABP,USIABP_USCG_C-130,North
2021-08-26T01:59:57Z,1629943197,2021,2,0,238.0833,238.0833,74.00558,-149.98578,1002.9,-0.98,15.93,yes,yes,yes,145803,AXIB,USIABP,USIABP_USCG_C-130,North
2021-08-26T03:00:00Z,1629946800,2021,3,0,238.125,238.125,74.01146,-149.97789,1002.6,-1.04,14.98,yes,yes,yes,145803,AXIB,USIABP,USIABP_USCG_C-130,North
2021-08-26T04:00:02Z,1629950403,2021,4,0,238.1667,238.1667,74.01762,-149.97641,1002.2,-1.1,6.59,yes,yes,yes,145803,AXIB,USIABP,USIABP_USCG_C-130,North
2021-08-26T04:59:57Z,1629953997,2021,5,0,238.2083,238.2083,74.02398,-149.98183,1001.6,-1.11,15.89,yes,yes,yes,145803,AXIB,USIABP,USIABP_USCG_C-130,North
2021-08-26T07:00:02Z,1629961203,2021,7,0,238.2917,238.2917,74.04107,-150.00237,1002.3,-1.18,13.6,yes,yes,yes,145803,AXIB,USIABP,USIABP_USCG_C-130,North
2021-08-26T07:59:57Z,1629964797,2021,8,0,238.3333,238.3333,74.05167,-150.01398,1000.0,-1.5,6.97,yes,yes,yes,145803,AXIB,USIABP,USIABP_USCG_C-130,North
2021-08-26T09:00:00Z,1629968400,2021,9,0,238.375,238.375,74.06242,-150.02219,1000.0,-1.28,14.55,yes,yes,yes,145803,AXIB,USIABP,USIABP_USCG_C-130,North
2021-08-26T10:00:02Z,1629972003,2021,10,0,238.4167,238.4167,74.07316,-150.02695,998.2,-1.29,14.02,yes,yes,yes,145803,AXIB,USIABP,USIABP_USCG_C-130,North
2021-08-26T10:59:57Z,1629975597,2021,11,0,238.4583,238.4583,74.0832,-150.02988,997.2,-1.3,13.9,yes,yes,yes,145803,AXIB,USIABP,USIABP_USCG_C-130,North
2021-08-26T12:00:00Z,1629979200,2021,12,0,238.5,238.5,74.09223,-150.0335,996.6,-1.32,6.81,yes,yes,yes,145803,AXIB,USIABP,USIABP_USCG_C-130,North
2021-08-26T13:00:02Z,1629982803,2021,13,0,238.5417,238.5417,74.10009,-150.03625,995.5,-1.32,14.4,yes,yes,yes,145803,AXIB,USIABP,USIABP_USCG_C-130,North
2021-08-26T13:59:57Z,1629986397,2021,14,0,238.5833,238.5833,74.10695,-150.04327,994.5,-1.33,14.39,yes,yes,yes,145803,AXIB,USIABP,USIABP_USCG_C-130,North
2021-08-26T15:00:00Z,1629990000,2021,15,0,238.625,238.625,74.11318,-150.05054,993.7,-1.33,14.63,yes,yes,yes,145803,AXIB,USIABP,USIABP_USCG_C-130,North
2021-08-26T16:00:02Z,1629993603,2021,16,0,238.6667,238.6667,74.11871,-150.0567,993.6,-1.33,7.2,yes,yes,yes,145803,AXIB,USIABP,USIABP_USCG_C-130,North
2021-08-26T16:59:57Z,1629997197,2021,17,0,238.7083,238.7083,74.12498,-150.0646,992.6,-1.3,15.38,yes,yes,yes,145803,AXIB,USIABP,USIABP_USCG_C-130,North
2021-08-26T18:00:00Z,1630000800,2021,18,0,238.75,238.75,74.131,-150.07236,992.3,-1.27,15.61,yes,yes,yes,145803,AXIB,USIABP,USIABP_USCG_C-130,North
2021-08-26T19:00:02Z,1630004403,2021,19,0,238.7917,238.7917,74.13725,-150.08044,992.1,-1.29,15.72,yes,yes,yes,145803,AXIB,USIABP,USIABP_USCG_C-130,North
2021-08-26T19:59:57Z,1630007997,2021,20,0,238.8333,238.8333,74.1431,-150.08627,991.6,-1.23,8.8,yes,yes,yes,145803,AXIB,USIABP,USIABP_USCG_C-130,North
2021-08-26T21:00:00Z,1630011600,2021,21,0,238.875,238.875,74.14886,-150.0939,991.6,-1.24,17.19,yes,yes,yes,145803,AXIB,USIABP,USIABP_USCG_C-130,North
2021-08-26T22:00:02Z,1630015203,2021,22,0,238.9167,238.9167,74.15489,-150.10126,991.5,-1.22,16.58,yes,yes,yes,145803,AXIB,USIABP,USIABP_USCG_C-130,North
2021-08-26T22:59:57Z,1630018797,2021,23,0,238.9583,238.9583,74.1606,-150.10751,991.3,-1.18,16.62,yes,yes,yes,145803,AXIB,USIABP,USIABP_USCG_C-130,North
2021-08-27T00:00:00Z,1630022400,2021,0,0,239.0,239.0,74.16593,-150.1114,991.5,-1.15,9.89,yes,yes,yes,145803,AXIB,USIABP,USIABP_USCG_C-130,North
2021-08-27T01:00:02Z,1630026003,2021,1,0,239.0417,239.0417,74.17094,-150.11307,991.3,-1.07,18.61,yes,yes,yes,145803,AXIB,USIABP,USIABP_USCG_C-130,North
2021-08-27T01:59:57Z,1630029597,2021,2,0,239.0833,239.0833,74.17533,-150.11345,991.5,-1.25,17.22,yes,yes,yes,145803,AXIB,USIABP,USIABP_USCG_C-130,North
2021-08-27T03:00:00Z,1630033200,2021,3,0,239.125,239.125,74.17932,-150.11375,991.6,-1.28,16.53,yes,yes,yes,145803,AXIB,USIABP,USIABP_USCG_C-130,North
2021-08-27T04:00:02Z,1630036803,2021,4,0,239.1667,239.1667,74.18262,-150.11552,991.6,-1.3,10.65,yes,yes,yes,145803,AXIB,USIABP,USIABP_USCG_C-130,North
2021-08-27T04:59:57Z,1630040397,2021,5,0,239.2083,239.2083,74.18491,-150.12173,991.6,-1.3,21.14,yes,yes,yes,145803,AXIB,USIABP,USIABP_USCG_C-130,North
2021-08-27T06:00:00Z,1630044000,2021,6,0,239.25,239.25,74.18706,-150.13261,991.8,-1.34,17.76,yes,yes,yes,145803,AXIB,USIABP,USIABP_USCG_C-130,North
2021-08-27T07:00:02Z,1630047603,2021,7,0,239.2917,239.2917,74.18984,-150.14627,992.0,-1.38,16.6,yes,yes,yes,145803,AXIB,USIABP,USIABP_USCG_C-130,North
2021-08-27T07:59:57Z,1630051197,2021,8,0,239.3333,239.3333,74.19347,-150.1614,992.1,-1.37,10.64,yes,yes,yes,145803,AXIB,USIABP,USIABP_USCG_C-130,North
2021-08-27T09:00:00Z,1630054800,2021,9,0,239.375,239.375,74.19753,-150.17468,992.3,-1.37,21.81,yes,yes,yes,145803,AXIB,USIABP,USIABP_USCG_C-130,North
2021-08-27T10:00:02Z,1630058403,2021,10,0,239.4167,239.4167,74.20125,-150.18488,992.7,-1.37,18.19,yes,yes,yes,145803,AXIB,USIABP,USIABP_USCG_C-130,North
2021-08-27T10:59:57Z,1630061997,2021,11,0,239.4583,239.4583,74.2034,-150.18666,993.8,-1.4,16.69,yes,yes,yes,145803,AXIB,USIABP,USIABP_USCG_C-130,North
2021-08-27T12:00:00Z,1630065600,2021,12,0,239.5,239.5,74.20389,-150.18417,995.0,-1.44,10.65,yes,yes,yes,145803,AXIB,USIABP,USIABP_USCG_C-130,North
2021-08-27T13:00:02Z,1630069203,2021,13,0,239.5417,239.5417,74.20378,-150.17894,995.6,-1.43,22.2,yes,yes,yes,145803,AXIB,USIABP,USIABP_USCG_C-130,North
2021-08-27T13:59:57Z,1630072797,2021,14,0,239.5833,239.5833,74.20118,-150.16843,996.9,-1.5,18.46,yes,yes,yes,145803,AXIB,USIABP,USIABP_USCG_C-130,North
2021-08-27T15:00:00Z,1630076400,2021,15,0,239.625,239.625,74.19786,-150.16087,1017.4,-1.71,18.3,yes,yes,yes,145803,AXIB,USIABP,USIABP_USCG_C-130,North
2021-08-27T16:00:02Z,1630080003,2021,16,0,239.6667,239.6667,74.19511,-150.15694,1017.7,-1.7,11.41,yes,yes,yes,145803,AXIB,USIABP,USIABP_USCG_C-130,North
2021-08-27T16:59:57Z,1630083597,2021,17,0,239.7083,239.7083,74.19322,-150.15479,1017.7,-1.78,21.16,yes,yes,yes,145803,AXIB,USIABP,USIABP_USCG_C-130,North
2021-08-27T18:00:00Z,1630087200,2021,18,0,239.75,239.75,74.19234,-150.15611,1017.8,-1.3,20.0,yes,yes,yes,145803,AXIB,USIABP,USIABP_USCG_C-130,North
2021-08-27T19:00:02Z,1630090803,2021,19,0,239.7917,239.7917,74.1932,-150.15858,1018.6,0.31,19.76,yes,yes,yes,145803,AXIB,USIABP,USIABP_USCG_C-130,North
2021-08-27T19:59:57Z,1630094397,2021,20,0,239.8333,239.8333,74.19566,-150.1622,1020.0,1.51,12.87,yes,yes,yes,145803,AXIB,USIABP,USIABP_USCG_C-130,North
2021-08-27T21:00:00Z,1630098000,2021,21,0,239.875,239.875,74.20065,-150.167,1021.5,1.74,23.24,yes,yes,yes,145803,AXIB,USIABP,USIABP_USCG_C-130,North
2021-08-27T22:00:02Z,1630101603,2021,22,0,239.9167,239.9167,74.20835,-150.17108,1022.1,-0.09,21.51,yes,yes,yes,145803,AXIB,USIABP,USIABP_USCG_C-130,North
2021-08-27T22:59:57Z,1630105197,2021,23,0,239.9583,239.9583,74.21718,-150.17078,1022.4,-1.22,20.86,yes,yes,yes,145803,AXIB,USIABP,USIABP_USCG_C-130,North
2021-08-28T00:00:00Z,1630108800,2021,0,0,240.0,240.0,74.22505,-150.16101,1022.9,0.18,12.76,yes,yes,yes,145803,AXIB,USIABP,USIABP_USCG_C-130,North
2021-08-28T01:00:02Z,1630112403,2021,1,0,240.0417,240.0417,74.23217,-150.14871,1022.4,-1.23,23.76,yes,yes,yes,145803,AXIB,USIABP,USIABP_USCG_C-130,North
2021-08-28T01:59:57Z,1630115997,2021,2,0,240.0833,240.0833,74.2387,-150.13547,1021.6,-0.66,22.01,yes,yes,yes,145803,AXIB,USIABP,USIABP_USCG_C-130,North
2021-08-28T03:00:00Z,1630119600,2021,3,0,240.125,240.125,74.24427,-150.11983,1021.1,-0.02,20.27,yes,yes,yes,145803,AXIB,USIABP,USIABP_USCG_C-130,North
2021-08-28T04:00:02Z,1630123203,2021,4,0,240.1667,240.1667,74.24911,-150.10448,1020.5,-1.1,12.27,yes,yes,yes,145803,AXIB,USIABP,USIABP_USCG_C-130,North
2021-08-28T04:59:57Z,1630126797,2021,5,0,240.2083,240.2083,74.2544,-150.0927,1011.4,-1.33,24.56,yes,yes,yes,145803,AXIB,USIABP,USIABP_USCG_C-130,North
2021-08-28T06:00:00Z,1630130400,2021,6,0,240.25,240.25,74.25988,-150.08118,1008.5,-1.31,23.47,yes,yes,yes,145803,AXIB,USIABP,USIABP_USCG_C-130,North
2021-08-28T07:00:02Z,1630134003,2021,7,0,240.2917,240.2917,74.26321,-150.07013,1003.8,-1.38,22.33,yes,yes,yes,145803,AXIB,USIABP,USIABP_USCG_C-130,North
2021-08-28T09:00:00Z,1630141200,2021,9,0,240.375,240.375,74.26968,-150.06535,1001.8,-1.44,24.02,yes,yes,yes,145803,AXIB,USIABP,USIABP_USCG_C-130,North
2021-08-28T10:00:02Z,1630144803,2021,10,0,240.4167,240.4167,74.27726,-150.07018,1004.5,-1.45,19.78,yes,yes,yes,145803,AXIB,USIABP,USIABP_USCG_C-130,North
2021-08-28T10:59:57Z,1630148397,2021,11,0,240.4583,240.4583,74.28881,-150.074,1000.1,-1.44,21.04,yes,yes,yes,145803,AXIB,USIABP,USIABP_USCG_C-130,North
2021-08-28T12:00:00Z,1630152000,2021,12,0,240.5,240.5,74.30312,-150.07101,1000.1,-1.39,14.83,yes,yes,yes,145803,AXIB,USIABP,USIABP_USCG_C-130,North
2021-08-28T13:00:02Z,1630155603,2021,13,0,240.5417,240.5417,74.31675,-150.05579,1000.1,-1.45,27.28,yes,yes,yes,145803,AXIB,USIABP,USIABP_USCG_C-130,North
2021-08-28T13:59:57Z,1630159197,2021,14,0,240.5833,240.5833,74.32715,-150.02576,1000.3,-1.47,29.7,yes,yes,yes,145803,AXIB,USIABP,USIABP_USCG_C-130,North
2021-08-28T15:00:00Z,1630162800,2021,15,0,240.625,240.625,74.33031,-149.99358,999.5,-1.45,29.43,yes,yes,yes,145803,AXIB,USIABP,USIABP_USCG_C-130,North
2021-08-28T16:00:02Z,1630166403,2021,16,0,240.6667,240.6667,74.3268,-149.9703,1000.5,-1.44,22.44,yes,yes,yes,145803,AXIB,USIABP,USIABP_USCG_C-130,North
2021-08-28T16:59:57Z,1630169997,2021,17,0,240.7083,240.7083,74.3197,-149.96432,1001.4,-1.45,32.48,yes,yes,yes,145803,AXIB,USIABP,USIABP_USCG_C-130,North
2021-08-28T18:00:00Z,1630173600,2021,18,0,240.75,240.75,74.31218,-149.9773,1001.6,-1.44,30.92,yes,yes,yes,145803,AXIB,USIABP,USIABP_USCG_C-130,North
2021-08-28T19:00:02Z,1630177203,2021,19,0,240.7917,240.7917,74.30533,-150.00732,1001.5,-1.4,27.96,yes,yes,yes,145803,AXIB,USIABP,USIABP_USCG_C-130,North
2021-08-28T19:59:57Z,1630180797,2021,20,0,240.8333,240.8333,74.29982,-150.05023,1001.5,-1.39,15.55,yes,yes,yes,145803,AXIB,USIABP,USIABP_USCG_C-130,North
2021-08-28T21:00:00Z,1630184400,2021,21,0,240.875,240.875,74.29836,-150.09508,1001.6,-1.36,24.63,yes,yes,yes,145803,AXIB,USIABP,USIABP_USCG_C-130,North
2021-08-28T22:00:02Z,1630188003,2021,22,0,240.9167,240.9167,74.30086,-150.13222,1001.7,-1.28,24.39,yes,yes,yes,145803,AXIB,USIABP,USIABP_USCG_C-130,North
2021-08-28T22:59:57Z,1630191597,2021,23,0,240.9583,240.9583,74.306,-150.15492,1003.3,-1.38,22.56,yes,yes,yes,145803,AXIB,USIABP,USIABP_USCG_C-130,North
2021-08-29T00:00:00Z,1630195200,2021,0,0,241.0,241.0,74.31313,-150.1614,1002.8,-1.26,13.45,yes,yes,yes,145803,AXIB,USIABP,USIABP_USCG_C-130,North
2021-08-29T01:00:02Z,1630198803,2021,1,0,241.0417,241.0417,74.32007,-150.15163,1002.6,-1.29,24.0,yes,yes,yes,145803,AXIB,USIABP,USIABP_USCG_C-130,North
2021-08-29T01:59:57Z,1630202397,2021,2,0,241.0833,241.0833,74.32443,-150.13184,1002.7,-1.32,24.1,yes,yes,yes,145803,AXIB,USIABP,USIABP_USCG_C-130,North
2021-08-29T03:00:00Z,1630206000,2021,3,0,241.125,241.125,74.32588,-150.10834,1002.4,-1.39,23.89,yes,yes,yes,145803,AXIB,USIABP,USIABP_USCG_C-130,North
2021-08-29T04:00:02Z,1630209603,2021,4,0,241.1667,241.1667,74.32498,-150.0865,1001.9,-1.42,13.13,yes,yes,yes,145803,AXIB,USIABP,USIABP_USCG_C-130,North
2021-08-29T04:59:57Z,1630213197,2021,5,0,241.2083,241.2083,74.32181,-150.07164,1001.5,-1.44,23.06,yes,yes,yes,145803,AXIB,USIABP,USIABP_USCG_C-130,North
2021-08-29T06:00:00Z,1630216800,2021,6,0,241.25,241.25,74.31751,-150.06685,1001.2,-1.46,24.02,yes,yes,yes,145803,AXIB,USIABP,USIABP_USCG_C-130,North
2021-08-29T07:59:57Z,1630223997,2021,8,0,241.3333,241.3333,74.31198,-150.08156,1000.4,-1.5,12.76,yes,yes,yes,145803,AXIB,USIABP,USIABP_USCG_C-130,North
2021-08-29T10:00:02Z,1630231203,2021,10,0,241.4167,241.4167,74.316,-150.11502,1000.1,-1.51,25.69,yes,yes,yes,145803,AXIB,USIABP,USIABP_USCG_C-130,North
2021-08-29T10:59:57Z,1630234797,2021,11,0,241.4583,241.4583,74.32237,-150.12357,1000.0,-1.58,25.83,yes,yes,yes,145803,AXIB,USIABP,USIABP_USCG_C-130,North
2021-08-29T12:00:00Z,1630238400,2021,12,0,241.5,241.5,74.33041,-150.12048,999.9,-1.77,13.62,yes,yes,yes,145803,AXIB,USIABP,USIABP_USCG_C-130,North
2021-08-29T13:00:02Z,1630242003,2021,13,0,241.5417,241.5417,74.3382,-150.10641,999.8,-1.89,25.95,yes,yes,yes,145803,AXIB,USIABP,USIABP_USCG_C-130,North
2021-08-29T13:59:57Z,1630245597,2021,14,0,241.5833,241.5833,74.34444,-150.08237,999.8,-1.92,26.43,yes,yes,yes,145803,AXIB,USIABP,USIABP_USCG_C-130,North
2021-08-29T15:00:00Z,1630249200,2021,15,0,241.625,241.625,74.34805,-150.05232,999.9,-1.63,26.37,yes,yes,yes,145803,AXIB,USIABP,USIABP_USCG_C-130,North
2021-08-29T16:59:57Z,1630256397,2021,17,0,241.7083,241.7083,74.34702,-150.00497,1000.5,-1.49,26.59,yes,yes,yes,145803,AXIB,USIABP,USIABP_USCG_C-130,North
2021-08-30T13:00:02Z,1630328403,2021,13,0,242.5417,242.5417,74.36361,-149.93176,1006.0,-1.57,33.63,yes,yes,yes,145803,AXIB,USIABP,USIABP_USCG_C-130,North
2021-08-30T13:59:57Z,1630331997,2021,14,0,242.5833,242.5833,74.36521,-149.91847,1007.4,-1.61,35.64,yes,yes,yes,145803,AXIB,USIABP,USIABP_USCG_C-130,North
2021-08-30T15:00:00Z,1630335600,2021,15,0,242.625,242.625,74.36379,-149.90816,1007.7,-1.56,36.55,yes,yes,yes,145803,AXIB,USIABP,USIABP_USCG_C-130,North
2021-08-30T16:00:02Z,1630339203,2021,16,0,242.6667,242.6667,74.36031,-149.90355,1008.7,-1.21,15.64,yes,yes,yes,145803,AXIB,USIABP,USIABP_USCG_C-130,North
2021-08-30T16:59:57Z,1630342797,2021,17,0,242.7083,242.7083,74.35551,-149.90714,1011.7,-0.31,39.17,yes,yes,yes,145803,AXIB,USIABP,USIABP_USCG_C-130,North
2021-08-30T18:00:00Z,1630346400,2021,18,0,242.75,242.75,74.35099,-149.92017,1015.8,0.45,36.83,yes,yes,yes,145803,AXIB,USIABP,USIABP_USCG_C-130,North
2021-08-30T19:00:02Z,1630350003,2021,19,0,242.7917,242.7917,74.3479,-149.9412,1016.1,0.29,34.17,yes,yes,yes,145803,AXIB,USIABP,USIABP_USCG_C-130,North
2021-08-30T19:59:57Z,1630353597,2021,20,0,242.8333,242.8333,74.3467,-149.9686,1016.3,0.03,16.33,yes,yes,yes,145803,AXIB,USIABP,USIABP_USCG_C-130,North
2021-08-30T21:00:00Z,1630357200,2021,21,0,242.875,242.875,74.34818,-149.99728,1016.4,-0.52,36.32,yes,yes,yes,145803,AXIB,USIABP,USIABP_USCG_C-130,North
2021-08-30T22:00:02Z,1630360803,2021,22,0,242.9167,242.9167,74.35225,-150.01952,1016.9,-0.63,35.68,yes,yes,yes,145803,AXIB,USIABP,USIABP_USCG_C-130,North
2021-08-30T22:59:57Z,1630364397,2021,23,0,242.9583,242.9583,74.3573,-150.03317,1016.4,-0.92,34.56,yes,yes,yes,145803,AXIB,USIABP,USIABP_USCG_C-130,North
2021-08-31T00:00:00Z,1630368000,2021,0,0,243.0,243.0,74.3622,-150.0367,1014.8,-1.0,17.04,yes,yes,yes,145803,AXIB,USIABP,USIABP_USCG_C-130,North
2021-08-31T01:00:02Z,1630371603,2021,1,0,243.0417,243.0417,74.36576,-150.03246,1013.5,-1.05,36.59,yes,yes,yes,145803,AXIB,USIABP,USIABP_USCG_C-130,North
2021-08-31T01:59:57Z,1630375197,2021,2,0,243.0833,243.0833,74.3672,-150.02258,1012.1,-1.22,36.84,yes,yes,yes,145803,AXIB,USIABP,USIABP_USCG_C-130,North
2021-08-31T03:00:00Z,1630378800,2021,3,0,243.125,243.125,74.3661,-150.01337,1010.3,-1.38,36.28,yes,yes,yes,145803,AXIB,USIABP,USIABP_USCG_C-130,North
2021-08-31T04:00:02Z,1630382403,2021,4,0,243.1667,243.1667,74.36321,-150.00778,1009.0,-1.44,16.48,yes,yes,yes,145803,AXIB,USIABP,USIABP_USCG_C-130,North
2021-08-31T04:59:57Z,1630385997,2021,5,0,243.2083,243.2083,74.35957,-150.0084,1008.5,-1.42,34.86,yes,yes,yes,145803,AXIB,USIABP,USIABP_USCG_C-130,North
2021-08-31T06:00:00Z,1630389600,2021,6,0,243.25,243.25,74.35594,-150.01704,1008.7,-1.43,34.52,yes,yes,yes,145803,AXIB,USIABP,USIABP_USCG_C-130,North
2021-08-31T07:00:02Z,1630393203,2021,7,0,243.2917,243.2917,74.35333,-150.03316,1008.8,-1.45,34.41,yes,yes,yes,145803,AXIB,USIABP,USIABP_USCG_C-130,North
2021-08-31T09:00:00Z,1630400400,2021,9,0,243.375,243.375,74.35331,-150.07512,1008.8,-1.48,34.92,yes,yes,yes,145803,AXIB,USIABP,USIABP_USCG_C-130,North
2021-08-31T10:00:02Z,1630404003,2021,10,0,243.4167,243.4167,74.35523,-150.09508,1009.0,-1.48,35.24,yes,yes,yes,145803,AXIB,USIABP,USIABP_USCG_C-130,North
2021-08-31T10:59:57Z,1630407597,2021,11,0,243.4583,243.4583,74.35862,-150.11244,1009.1,-1.5,34.76,yes,yes,yes,145803,AXIB,USIABP,USIABP_USCG_C-130,North